Regional Weather Roundup
Issued by NWS

Home | Current Version | Previous Version | Text Only | Print | Product List | Glossary Off
Versions: 1 2 3 4 5 6 7 8 9 10 11 12 13 14 15 16 17 18 19 20 21 22 23 24 25 26 27 28 29 30 31 32 33 34 35 36 37 38 39 40 41 42 43 44 45 46 47 48 49 50

000
ASUS45 KPSR 010200
RWRAZ

PRELIMINARY ARIZONA REGIONAL HOURLY WEATHER ROUNDUP
NATIONAL WEATHER SERVICE PHOENIX AZ
700 PM MST SAT FEB 28 2015

NOTE: FAIR INDICATES FEW OR NO CLOUDS BELOW 12,000 FEET WITH NO
SIGNIFICANT WEATHER AND/OR OBSTRUCTIONS TO VISIBILITY.

AZZ001>003-036-010300-
NORTHWEST ARIZONA

CITY           SKY/WX    TMP DP  RH WIND       PRES   REMARKS
KINGMAN        MOCLDY    51  27  39 S15       29.80R
$$

AZZ004>008-015-016-018-010300-
NORTH CENTRAL ARIZONA

CITY           SKY/WX    TMP DP  RH WIND       PRES   REMARKS
GRAND CANYON   CLOUDY    37  28  70 SW7       29.85R WCI  32
PRESCOTT       MOCLDY    47  30  51 S9        29.87R
FLAGSTAFF      FLURRIES  36  32  87 S17       29.86S WCI  25
PAYSON         CLOUDY    45  43  93 CALM      29.94R
PAGE           MOCLDY    43  38  82 NE6       29.81R
$$

AZZ009>014-017-010300-
NORTHEAST ARIZONA

CITY           SKY/WX    TMP DP  RH WIND       PRES   REMARKS
WINSLOW        NOT AVBL
SAINT JOHNS    MOCLDY    47  37  68 W13       29.90R
WINDOW ROCK    LGT RAIN  38  34  85 SW14      29.89R WCI  30
SHOW LOW       CLOUDY    39  36  87 SW26G32   29.92R WCI  28
$$

AZZ023-010300-
GREATER PHOENIX AREA

CITY           SKY/WX    TMP DP  RH WIND       PRES   REMARKS
PHOENIX        CLOUDY    66  45  46 CALM      29.82R
BUCKEYE        PTCLDY    63  50  63 S8        29.83R
GLENDALE       MOCLDY    64  46  52 SE5       29.84
DEER VALLEY    MOCLDY    63  42  46 S6        29.83R
SCOTTSDALE     CLOUDY    64  44  48 SE3       29.85R
MESA-FALCON    CLOUDY    63  46  55 S9        29.84R
MESA-GATEWAY   PTCLDY    63  46  55 S7        29.87R
CHANDLER       MOCLDY    66  46  48 S12       29.85
$$

AZZ027-028-010300-
SOUTHWEST MARICOPA COUNTY AND PINAL COUNTY

CITY           SKY/WX    TMP DP  RH WIND       PRES   REMARKS
CASA GRANDE    CLOUDY    64  45  48 S13       29.86R
GILA BEND      MOCLDY    66  46  48 S16G23    29.84R
$$

AZZ503-504-507>509-010300-
SOUTHEAST ARIZONA

CITY           SKY/WX    TMP DP  RH WIND       PRES   REMARKS
TUCSON         CLOUDY    67  41  38 W12       29.91R
DAVIS-MONTHAN  CLOUDY    66  42  41 W10       29.89R
RYAN FIELD       N/A     66  43  42 SW14G20   29.91R
NOGALES        PTCLDY    61  40  45 S16       29.94R
SIERRA VISTA   CLEAR     57  40  52 SW13      29.96R
SAFFORD        CLOUDY    61  42  49 NW14      29.87R
$$

AZZ020-021-025-026-031-010300-
SOUTHWEST ARIZONA

CITY           SKY/WX    TMP DP  RH WIND       PRES   REMARKS
YUMA           NOT AVBL
$$

CAZ031-033-041-043-047-048-061-010300-
SOUTHERN CALIFORNIA

CITY           SKY/WX    TMP DP  RH WIND       PRES   REMARKS
DOWNTOWN L.A.  PTCLDY    58  46  64 VRB3      29.86R
L.A. AIRPORT   MOCLDY    57  46  66 SW10      29.86R
SAN DIEGO      RAIN      59  50  72 SW10      29.90S
BURBANK        MOCLDY    56  44  64 S8        29.85R
ONTARIO        MOCLDY    56  42  59 SW8       29.86R
RIVERSIDE      PTCLDY    56  41  57 W8        29.86R
PALM SPRINGS   PTCLDY    64  34  32 NE8       29.81R
EL CENTRO NAS  CLEAR     65  38  36 W14       29.83R
IMPERIAL       PTCLDY    62  42  47 W8        29.82R
BLYTHE         MOCLDY    67  38  34 SW12      29.80R
$$

NVZ020-UTZ003-010300-
SOUTHERN NEVADA-UTAH

CITY           SKY/WX    TMP DP  RH WIND       PRES   REMARKS
LAS VEGAS      NOT AVBL
SALT LAKE CITY CLOUDY    36  32  85 S8        29.81R WCI  30
$$

NMZ009-TXZ055-010300-
NEW MEXICO-WEST TEXAS

CITY           SKY/WX    TMP DP  RH WIND       PRES   REMARKS
ALBUQUERQUE    MOCLDY    34  27  75 N15       29.94R WCI  24
EL PASO        PTCLDY    68  30  24 SW17G24   29.90R
$$


........................KEY........................
SKY/WX - SKY CONDITION/WEATHER
TMP    - TEMPERATURE IN FAHRENHEIT
DP     - DEW POINT IN FAHRENHEIT
RH     - RELATIVE HUMIDITY IN PERCENT
WIND   - DIRECTION AND SPEED IN MILES PER HOUR (MPH)
VRB    - VARIABLE WIND DIRECTION
PRES   - MEAN SEA LEVEL PRESSURE IN INCHES OF MERCURY
         F - FALLING PRESSURE   R - RISING PRESSURE
         S - STEADY PRESSURE
VSB    - VISIBILITY IN MILES
HX     - HEAT INDEX IN FAHRENHEIT
WCI    - WIND CHILL INDEX IN FAHRENHEIT
TC     - TEMPERATURE IN CELSIUS WHICH IS ALSO KNOWN AS
         TEMPERATURE IN CENTIGRADE
AFB    - AIR FORCE BASE
         LUKE AFB IS LUKE AIR FORCE BASE
         DAVIS-MONTHAN IS DAVIS-MONTHAN AIR FORCE BASE
NAS    - NAVAL AIR STATION
         EL CENTRO NAS IS EL CENTRO NAVAL AIR STATION
N/A    - NOT AVAILABLE



USA.gov is the U.S. government's official web portal to all federal, state and local government web resources and services.